Regional Weather Roundup
Issued by NWS

Home | Current Version | Previous Version | Graphics & Text | Print | Product List | Glossary On
Versions: 1 2 3 4 5 6 7 8 9 10 11 12 13 14 15 16 17 18 19 20 21 22 23 24 25 26 27 28 29 30 31 32 33 34 35 36 37 38 39 40 41 42 43 44 45 46 47 48 49 50
000
ASUS43 KIND 191100
RWRIN

WEATHER ROUNDUP FOR INDIANA
NATIONAL WEATHER SERVICE INDIANAPOLIS IN
700 AM EDT THU OCT 19 2017

NOTE: "FAIR" INDICATES FEW OR NO CLOUDS BELOW 12,000 FEET WITH NO
SIGNIFICANT WEATHER AND/OR OBSTRUCTIONS TO VISIBILITY.

* - STATION DOES NOT REPORT WEATHER SUCH AS PRECIPITATION OR FOG.

+ - STATION NOT QUALITY CONTROLLED BY THE NATIONAL WEATHER SERVICE.
    USE DATA WITH CAUTION...ESPECIALLY DEWPOINT AND RELATIVE
    HUMIDITY OBSERVATIONS.

INZ001>003-010>013-019-020-191200-
NORTHWEST INDIANA

CITY           SKY/WX    TMP DP  RH WIND       PRES   REMARKS
GARY /AIRPORT/ CLEAR     54  46  76 SW7       30.10R
KNOX *+        CLOUDY    46  45  93 SW7       30.10R
MICHIGAN CITY+ CLOUDY    50  45  81 SW5       30.10R
MONTICELLO +   CLEAR     51  47  85 SW8       30.12S
RENSSELAER +   CLEAR     50  43  76 S6        30.11S

$$

LMZ046-743>745-191200-
SOUTHERN LAKE MICHIGAN

STATION/POSITION TIME  TEMP    WIND        PRES    WAVE
                       AIR SEA DIR/SP/G            HT
                 (UTC) (F)     (DEG/KT/KT) (MB)    (FT)
BURNS HARBOR     1040   57     260/ 13/ 19 1019.3R
MICHIGAN CITY    1030   55     200/  7/  9   N/A
5NW MICH CITY    1050   57 57  240/ 12/ 16   N/A     3

$$

INZ004-005-014>016-021>024-191200-
NORTH CENTRAL INDIANA

CITY           SKY/WX    TMP DP  RH WIND       PRES   REMARKS
ELKHART        CLEAR    N/A N/A N/A SW3       30.08
GOSHEN         CLEAR     51  44  77 SW10      30.09R
PERU/GRISSOM   CLEAR     50  46  87 SW7       30.12R
SOUTH BEND     CLEAR     51  46  83 SW9       30.10R

$$

INZ006>009-017-018-025>027-191200-
NORTHEAST INDIANA

CITY           SKY/WX    TMP DP  RH WIND       PRES   REMARKS
FORT WAYNE     MOCLDY    50  45  83 SW10      30.12S
KENDALLVILLE + CLEAR     51  46  83 SW9       30.10S

$$

INZ028-029-035-036-043>045-051>053-191200-
WEST CENTRAL INDIANA

CITY           SKY/WX    TMP DP  RH WIND       PRES   REMARKS
GREENCASTLE +  CLEAR     54  45  71 SW3       30.18R
LAFAYETTE      CLEAR     51  47  86 SW5       30.13R
TERRE HAUTE    CLEAR     52  46  80 S6        30.18R

$$

INZ030>032-037>040-046>048-054>057-064-065-191200-
CENTRAL INDIANA

CITY           SKY/WX    TMP DP  RH WIND       PRES   REMARKS
COLUMBUS       CLEAR     43  41  93 S5        30.21
GREENWOOD *+   CLEAR     51  47  86 S5        30.18S
INDIANAPOLIS   PTCLDY    49  44  83 SW7       30.18R
-EAGLE CREEK   CLEAR     49  44  83 S3        30.16R
KOKOMO +       CLEAR     53  46  77 SW12      30.14S
MT COMFORT *+  CLEAR     46  46 100 S6        30.18R
SHELBYVILLE    CLEAR     50  43  77 S8        30.18S

$$

INZ033-034-041-042-049-050-058-059-191200-
EAST CENTRAL INDIANA

CITY           SKY/WX    TMP DP  RH WIND       PRES   REMARKS
MUNCIE         CLEAR     54  45  71 SW8       30.15S
RICHMOND +     CLEAR     46  43  87 SW6       30.20S

$$

INZ060-061-067>069-081>083-085>088-191200-
SOUTHWEST INDIANA

CITY           SKY/WX    TMP DP  RH WIND       PRES   REMARKS
EVANSVILLE     CLEAR     47  45  93 CALM      30.23R
HUNTINGBURG +  CLEAR     49  45  86 S5        30.23R

$$

INZ062-063-066-070>080-084-089>092-191200-
SOUTH CENTRAL AND SOUTHEAST INDIANA

CITY           SKY/WX    TMP DP  RH WIND       PRES   REMARKS
BLOOMINGTON    CLEAR     48  42  80 SW5       30.19R
MADISON *+     CLEAR     46  45  93 CALM      30.25R
SEYMOUR +      CLEAR     45  43  93 CALM      30.22R

$$





USA.gov is the U.S. government's official web portal to all federal, state and local government web resources and services.